[[{"header":{"parameterUnit":"m.s-1","parameterCategory":1,"la1":30.2991,"la2":30.254,"lo1":-89.0895,"lo2":-89.0444,"dy":0.0017,"dx":0.0017,"nx":28,"ny":28,"refTime":"2023-11-20T03:00:00:Z","depth":0,"parameterNumber":2,"parameterNumberName":"U-component_of_WINDS"},"data":[0,0,0,0,0,0,0,0,0,0,0,0,0,0,0,0,0,0,0,0,0,0,0,0,0,0,0,0,0,0,0,0,0,0,0,0,0,0,0,0,0,0,0,0,0,0,0,0,0,0,0,0,0,0,0,0,0,0,-0.4534,-0.4534,0,-0.4547,-0.4548,-0.4548,-0.4519,-0.4518,-0.4517,-0.4517,-0.4532,-0.4533,-0.4534,0,0,0,0,0,0,0,0,0,0,0,0,0,-0.4486,-0.4487,-0.4534,-0.4534,-0.4534,-0.4547,-0.4548,-0.4548,-0.4519,-0.4518,-0.4517,-0.4516,-0.4531,-0.4533,-0.4534,0,0,0,0,0,0,0,0,0,0,0,0,0,-0.4504,-0.4487,-0.4534,-0.4522,-0.4521,-0.4547,-0.4548,-0.4548,-0.452,-0.4518,-0.4517,-0.4516,-0.4531,-0.4533,-0.4535,-0.4574,0,0,-0.4541,-0.4541,0,0,0,0,0,0,0,0,-0.4503,-0.4505,-0.4523,-0.4523,-0.4522,-0.453,-0.4536,-0.4557,-0.452,-0.452,-0.4517,-0.4515,-0.4533,-0.4534,-0.454,-0.4575,-0.4576,-0.4541,-0.4542,-0.4543,-0.4543,0,0,0,0,0,0,0,-0.4501,-0.4505,-0.4539,-0.4524,-0.4523,-0.4516,-0.4517,-0.454,-0.4534,-0.452,-0.4518,-0.452,-0.4532,-0.4538,-0.454,-0.4576,-0.4541,-0.4542,-0.4543,-0.4544,-0.4645,-0.4647,0,0,0,0,0,0,-0.4501,-0.4504,-0.4539,-0.454,-0.4508,-0.4518,-0.4519,-0.4529,-0.4534,-0.4533,-0.4521,-0.4518,-0.4536,-0.4538,-0.454,-0.4588,-0.4543,-0.4544,-0.4546,-0.4644,-0.4646,-0.4647,0,0,0,0,0,0,-0.4501,-0.4505,-0.4538,-0.4521,-0.4525,-0.452,-0.4531,-0.453,-0.4536,-0.4534,-0.4533,-0.4528,-0.4534,-0.4538,-0.4566,-0.4588,-0.4545,-0.4547,-0.4642,-0.4644,-0.4646,-0.4683,0,0,0,0,0,0,-0.4499,-0.4505,-0.4519,-0.4522,-0.4526,-0.4564,-0.4533,-0.4531,-0.4539,-0.4536,-0.4541,-0.4541,-0.4534,-0.4564,-0.4568,-0.459,-0.4549,-0.464,-0.4643,-0.4646,-0.468,-0.4686,-0.4692,0,0,0,0,0,-0.4498,-0.4529,-0.452,-0.4525,-0.4544,-0.4565,-0.4567,-0.4558,-0.4541,-0.4556,-0.4555,-0.454,-0.4585,-0.4567,-0.4572,-0.4594,-0.4639,-0.4642,-0.4645,-0.4677,-0.4685,-0.4691,0,0,0,0,0,0,-0.453,-0.4529,-0.4519,-0.4552,-0.4559,-0.456,-0.4579,-0.4567,-0.4578,-0.4575,-0.4564,-0.4565,-0.4596,-0.4598,-0.4578,-0.4633,-0.4609,-0.4613,-0.4631,-0.4639,-0.4644,-0.4644,-0.455,0,0,0,0,0,-0.4541,-0.4557,-0.4556,-0.4585,-0.4589,-0.4583,-0.4592,-0.4584,-0.4591,-0.4594,-0.4594,-0.4602,-0.4617,-0.4628,-0.4642,-0.4679,-0.4681,-0.4698,-0.4704,-0.4708,-0.4713,-0.4734,-0.4742,-0.4659,-0.4659,-0.4658,0,0,-0.4564,-0.4565,-0.4576,-0.4592,-0.4596,-0.4614,-0.4586,-0.4606,-0.4619,-0.4597,-0.4624,-0.4625,-0.4632,-0.4666,-0.468,-0.4668,-0.4736,-0.4713,-0.4717,-0.4719,-0.4738,-0.4746,-0.4753,-0.4661,-0.466,-0.466,0,0,-0.4615,-0.4617,-0.4642,-0.4647,-0.4653,-0.4649,-0.4655,-0.4658,-0.4658,-0.4685,-0.4669,-0.4685,-0.4711,-0.4718,-0.4724,-0.4778,-0.4765,-0.4783,-0.4814,-0.4835,-0.4841,-0.4847,-0.4867,-0.4875,-0.4787,-0.4787,-0.4787,0,-0.4643,-0.4668,-0.4657,-0.4678,-0.4686,-0.4666,-0.4692,-0.4697,-0.4708,-0.4714,-0.47,-0.4733,-0.4737,-0.4772,-0.4785,-0.4791,-0.4798,-0.4783,-0.4841,-0.4847,-0.4852,-0.4871,-0.4879,-0.4789,-0.4789,-0.4789,-0.4789,0,-0.4703,-0.4721,-0.4741,-0.4752,-0.4761,-0.4785,-0.4778,-0.4789,-0.478,-0.4778,-0.4806,-0.4809,-0.4824,-0.4832,-0.4824,-0.4866,-0.4858,-0.4843,-0.4818,-0.4862,-0.488,-0.4887,-0.4792,-0.4792,-0.4791,-0.479,0,0,-0.4776,-0.4779,-0.4787,-0.4792,-0.4797,-0.4812,-0.4834,-0.4848,-0.4859,-0.4867,-0.4886,-0.491,-0.4895,-0.4903,-0.4895,-0.4913,-0.4957,-0.4896,-0.4896,-0.4908,-0.5005,-0.5017,-0.5026,-0.4948,-0.4949,-0.495,-0.5005,0,-0.4827,-0.4866,-0.4856,-0.4895,-0.4912,-0.4893,-0.4913,-0.4919,-0.4918,-0.4932,-0.4931,-0.4948,-0.4927,-0.4932,-0.4949,-0.4948,-0.4976,-0.4944,-0.4967,-0.4968,-0.4967,-0.5035,-0.5048,-0.5099,-0.5011,-0.5012,-0.5013,0,-0.4892,-0.4903,-0.4943,-0.4946,-0.4953,-0.4971,-0.4984,-0.4998,-0.5004,-0.5002,-0.501,-0.4999,-0.5023,-0.4997,-0.503,-0.5008,-0.5017,-0.5018,-0.502,-0.5023,-0.4994,-0.5041,-0.5115,-0.5123,-0.5024,-0.5023,-0.5022,0,-0.4943,-0.4967,-0.4994,-0.4999,-0.5003,-0.5016,-0.5018,-0.5023,-0.5033,-0.5044,-0.505,-0.5063,-0.5071,-0.5082,-0.5076,-0.5057,-0.511,-0.5083,-0.511,-0.511,-0.5122,-0.5122,-0.52,-0.5126,-0.5126,-0.5126,-0.5126,0,-0.5002,-0.5028,-0.5017,-0.5034,-0.5063,-0.5051,-0.508,-0.508,-0.5085,-0.5102,-0.5086,-0.5103,-0.5093,-0.5109,-0.5104,-0.5132,-0.5136,-0.5135,-0.5134,-0.5137,-0.5138,-0.5144,-0.5141,-0.5128,-0.5128,-0.5127,-0.5127,0,-0.5064,-0.5057,-0.5086,-0.5087,-0.5088,-0.5109,-0.5111,-0.5127,-0.5124,-0.5146,-0.5151,-0.5146,-0.5165,-0.5159,-0.5178,-0.5175,-0.5211,-0.5205,-0.5209,-0.5208,-0.5235,-0.5233,-0.5321,-0.5332,-0.525,-0.5251,-0.5251,0,-0.5103,-0.5122,-0.5125,-0.5135,-0.5139,-0.5155,-0.5164,-0.5154,-0.5164,-0.5173,-0.5189,-0.5205,-0.5218,-0.5248,-0.5248,-0.5263,-0.5257,-0.5287,-0.5259,-0.5263,-0.5259,-0.5258,-0.5261,-0.5293,-0.5294,-0.5294,-0.5295,0,-0.5173,-0.5168,-0.5182,-0.5195,-0.5206,-0.5216,-0.5224,-0.5233,-0.5223,-0.5236,-0.5254,-0.5264,-0.5284,-0.5301,-0.5315,-0.5318,-0.5306,-0.5304,-0.5311,-0.5315,-0.5317,-0.5318,-0.5225,-0.5302,-0.5301,-0.5301,-0.53,-0.53,-0.5225,-0.5241,-0.5246,-0.5262,-0.5267,-0.5275,-0.5291,-0.5289,-0.5304,-0.5319,-0.5312,-0.5333,-0.534,-0.5357,-0.5362,-0.5379,-0.5367,-0.5377,-0.538,-0.5383,-0.5387,-0.5314,-0.5381,-0.5381,-0.5381,-0.538,-0.538,0,-0.5295,-0.5297,-0.5312,-0.5324,-0.5336,-0.5322,-0.533,-0.5342,-0.5361,-0.5368,-0.538,-0.5402,-0.5418,-0.5418,-0.5434,-0.5448,-0.5442,-0.5452,-0.5452,-0.5453,-0.5396,-0.5388,-0.5456,-0.5456,-0.5456,-0.5456,-0.5456,-0.5456,-0.5333,-0.5361,-0.5357,-0.5387,-0.5389,-0.5409,-0.5416,-0.5423,-0.5429,-0.5453,-0.5466,-0.5466,-0.547,-0.5486,-0.5501,-0.55,-0.5508,-0.552,-0.5518,-0.5464,-0.5457,-0.545,-0.5443,-0.5521,-0.5521,-0.5574,-0.5574,-0.5575]},{"header":{"parameterUnit":"m.s-1","parameterCategory":1,"la1":30.2991,"la2":30.254,"lo1":-89.0895,"lo2":-89.0444,"dy":0.0017,"dx":0.0017,"nx":28,"ny":28,"refTime":"2023-11-20T03:00:00:Z","depth":0,"parameterNumber":3,"parameterNumberName":"V-component_of_WINDS"},"data":[0,0,0,0,0,0,0,0,0,0,0,0,0,0,0,0,0,0,0,0,0,0,0,0,0,0,0,0,0,0,0,0,0,0,0,0,0,0,0,0,0,0,0,0,0,0,0,0,0,0,0,0,0,0,0,0,0,0,1.0042,1.0042,0,1.0022,1.0021,1.0021,1.0026,1.0026,1.0026,1.0027,1.0003,1.0003,1.0002,0,0,0,0,0,0,0,0,0,0,0,0,0,1.0082,1.0082,1.0042,1.0042,1.0041,1.0022,1.0021,1.0021,1.0026,1.0026,1.0026,1.0027,1.0004,1.0003,1.0001,0,0,0,0,0,0,0,0,0,0,0,0,0,1.0064,1.0081,1.0042,1.0041,1.0041,1.0022,1.0021,1.0021,1.0025,1.0026,1.0027,1.0027,1.0004,1.0003,1.0001,0.9981,0,0,0.9997,0.9996,0,0,0,0,0,0,0,0,1.0065,1.0062,1.0042,1.0041,1.0041,1.0027,1.0027,1.0007,1.0025,1.0031,1.0027,1.0027,1.0011,1.0009,1.0004,0.998,0.9979,0.9997,0.9996,0.9995,0.9995,0,0,0,0,0,0,0,1.0066,1.0063,1.0034,1.0041,1.0041,1.0041,1.0039,1.0024,1.0018,1.0031,1.0031,1.0029,1.0011,1.0005,1.0003,0.9978,0.9997,0.9995,0.9995,0.9994,0.9937,0.9936,0,0,0,0,0,0,1.0068,1.0064,1.0035,1.0033,1.0055,1.004,1.0038,1.0031,1.0018,1.0017,1.0028,1.0029,1.0007,1.0005,1.0002,0.9977,0.9995,0.9994,0.9993,0.9937,0.9937,0.9936,0,0,0,0,0,0,1.0069,1.0065,1.0035,1.0049,1.0045,1.0039,1.0031,1.003,1.0024,1.0016,1.0015,1.0024,1.0007,1.0004,0.9986,0.9976,0.9993,0.9992,0.9938,0.9937,0.9936,0.9927,0,0,0,0,0,0,1.007,1.0066,1.0058,1.0049,1.0044,1.002,1.003,1.0029,1.0022,1.0023,1.0012,1.001,1.0008,0.9988,0.9985,0.9975,0.9991,0.9939,0.9938,0.9936,0.9928,0.9926,0.9924,0,0,0,0,0,1.0071,1.0056,1.0058,1.0054,1.0035,1.002,1.0017,1.0015,1.0021,1.0013,1.0008,1.0011,0.9978,0.9987,0.9982,0.9972,0.9939,0.9938,0.9937,0.9929,0.9926,0.9924,0,0,0,0,0,0,1.0063,1.0054,1.0056,1.0037,1.0029,1.002,1.001,1.0012,1.0002,1.0003,1.0,0.9998,0.9979,0.9974,0.9983,0.9951,0.996,0.9957,0.9955,0.9953,0.995,0.9952,0.9989,0,0,0,0,0,1.0059,1.0048,1.0041,1.0025,1.0021,1.0016,1.001,1.0009,1.0,0.9996,0.999,0.9981,0.9969,0.996,0.9949,0.9928,0.9925,0.9918,0.9916,0.9915,0.9912,0.9901,0.9897,0.9931,0.9931,0.9931,0,0,1.005,1.0044,1.0037,1.0023,1.0017,1.0005,1.0013,1.0,0.9991,0.9994,0.9977,0.9972,0.9961,0.9942,0.9933,0.9937,0.9903,0.9913,0.9911,0.991,0.9899,0.9896,0.9893,0.993,0.993,0.993,0,0,1.0028,1.0023,1.0009,1.0003,0.9994,0.9991,0.9988,0.9979,0.9976,0.9959,0.9961,0.995,0.9929,0.9921,0.9915,0.9891,0.9893,0.9888,0.9876,0.9865,0.9862,0.986,0.9851,0.9848,0.9886,0.9886,0.9886,0,1.0019,1.0001,1.0001,0.9988,0.9982,0.9985,0.9971,0.9964,0.9951,0.9946,0.9952,0.9926,0.9919,0.9898,0.9892,0.9887,0.9882,0.9888,0.9863,0.986,0.9858,0.9849,0.9846,0.9885,0.9885,0.9885,0.9885,0,0.9989,0.9978,0.9967,0.9956,0.9948,0.9934,0.9931,0.9924,0.9924,0.9921,0.9903,0.9896,0.9882,0.9878,0.9877,0.9856,0.9859,0.9863,0.9872,0.9854,0.9846,0.9843,0.9884,0.9884,0.9884,0.9885,0,0,0.996,0.995,0.9946,0.9941,0.9932,0.9922,0.9908,0.9896,0.989,0.9881,0.9869,0.9852,0.9856,0.9849,0.9848,0.9838,0.9819,0.9844,0.9843,0.9839,0.9795,0.9791,0.9788,0.9821,0.982,0.982,0.9796,0,0.9937,0.9914,0.9914,0.9892,0.9881,0.9884,0.9873,0.9865,0.9862,0.9852,0.9848,0.9836,0.9842,0.9838,0.9829,0.9824,0.981,0.9826,0.9809,0.9808,0.9811,0.9783,0.9779,0.9757,0.9793,0.9792,0.9792,0,0.9906,0.9898,0.9875,0.9868,0.9863,0.9852,0.9842,0.9832,0.9824,0.9822,0.9814,0.9815,0.9801,0.9811,0.9791,0.9801,0.9794,0.9791,0.979,0.9788,0.9798,0.9779,0.975,0.9746,0.9787,0.9787,0.9788,0,0.9886,0.9869,0.9853,0.9849,0.984,0.9833,0.9828,0.9821,0.9814,0.9805,0.98,0.9789,0.9782,0.9774,0.9771,0.9779,0.9751,0.9761,0.9749,0.9749,0.9742,0.9742,0.9709,0.9739,0.9739,0.9739,0.9739,0,0.986,0.9846,0.9844,0.9835,0.9819,0.9819,0.9803,0.98,0.9793,0.9782,0.9785,0.9775,0.9773,0.9762,0.976,0.9744,0.9741,0.9739,0.9738,0.9738,0.9738,0.9733,0.9734,0.9738,0.9738,0.9739,0.9739,0,0.9834,0.9833,0.9816,0.981,0.9808,0.9796,0.9791,0.9781,0.9779,0.9765,0.9762,0.9758,0.9745,0.9743,0.9727,0.9726,0.9706,0.9708,0.9709,0.9709,0.9697,0.9698,0.9659,0.9654,0.9688,0.9687,0.9687,0,0.9817,0.9806,0.9799,0.9793,0.9788,0.9777,0.9771,0.9771,0.9763,0.9754,0.9745,0.9733,0.9724,0.9703,0.9699,0.9687,0.9688,0.9675,0.9686,0.9686,0.9687,0.9687,0.9686,0.9673,0.9672,0.9672,0.9672,0,0.9786,0.9786,0.9777,0.9767,0.9759,0.9751,0.9744,0.9738,0.9737,0.9729,0.9717,0.9709,0.9695,0.9682,0.9671,0.9666,0.9668,0.9669,0.9665,0.9664,0.9665,0.9664,0.9703,0.9669,0.9669,0.967,0.967,0.967,0.9763,0.9754,0.9748,0.9737,0.9732,0.9725,0.9716,0.9713,0.9703,0.9692,0.9692,0.9679,0.9671,0.9656,0.9651,0.964,0.9644,0.9639,0.9638,0.9636,0.9635,0.9668,0.9638,0.9638,0.9638,0.9638,0.9638,0,0.9732,0.9728,0.9719,0.9709,0.97,0.9705,0.9697,0.969,0.9678,0.9671,0.9662,0.9648,0.9636,0.9632,0.962,0.9612,0.9613,0.9609,0.9609,0.9608,0.9632,0.9636,0.9609,0.9609,0.9609,0.9609,0.9609,0.9609,0.9714,0.9699,0.9698,0.968,0.9677,0.9664,0.9659,0.9653,0.9648,0.9632,0.9623,0.962,0.9614,0.9603,0.9592,0.9591,0.9586,0.9582,0.9581,0.9603,0.9606,0.9609,0.9613,0.9581,0.9581,0.9557,0.9557,0.9557]}]]